Powrót do katalogu

THOR ABLESTAR DEB

AktywnyLEO
NORAD 210·DEBRIS·🇺🇸 United States

Wystrzelony Jun 29, 1961 z Cape Canaveral Space Force Station

Loading…

Następne Przeloty (najbliższe 24 godziny)

TLE

ŚwieżeSource: Space-Track

Epoka: Sep 14, 2026, 09:50 UTC

1 00210U 61015BE  26257.40980039  .00000342  00000-0  34226-3 0  9990
2 00210  66.4565 145.2884 0053193 258.7633 100.7461 13.89160462277795

Śledź THOR ABLESTAR DEB w czasie rzeczywistym z AllMySat

Download on the App Store